Regional Weather Roundup
Issued by NWS Newport/Morehead, NC

Current Version | Previous Version | Graphics & Text | Print | Product List | Glossary Off
Versions: 1 2 3 4 5 6 7 8 9 10 11 12 13 14 15 16 17 18 19 20 21 22 23 24 25 26 27 28 29 30 31 32 33 34 35 36 37 38 39 40 41 42 43 44 45 46 47 48 49 50

000
ASUS42 KMHX 210822
RWRMHX
WEATHER ROUNDUP FOR EASTERN NORTH CAROLINA
NATIONAL WEATHER SERVICE NEWPORT/MOREHEAD CITY NC
400 AM EDT SUN SEP 21 2014

NOTE: "FAIR" INDICATES FEW OR NO CLOUDS BELOW 12,000 FEET
WITH NO SIGNIFICANT WEATHER AND/OR OBSTRUCTIONS TO VISIBILITY

NCZ015>017-031-032-045>047-102-103-210900-
NORTH COAST

CITY           SKY/WX    TMP DP  RH WIND       PRES   REMARKS
EDENTON        RAIN      69  68  96 N9        29.83F
ELIZABETH CITY HVY RAIN  72  70  94 N9        29.84F FOG
KITTY HAWK     RAIN      71  70  96 E3        29.80F
MANTEO         DRIZZLE   71  70  98 NE7       29.81F

$$

NCZ045>047-081-094-103-104-210900-
CENTRAL COAST

CITY           SKY/WX    TMP DP  RH WIND       PRES   REMARKS
FRISCO         RAIN      71  71 100 E7        29.76F FOG
SWANQUARTER      N/A     72 N/A N/A N15       29.77S

$$

NCZ095-097-098-100-101-210900-
SOUTHERN COAST

CITY           SKY/WX    TMP DP  RH WIND       PRES   REMARKS
BEAUFORT       RAIN      73  71  93 N17G29    29.72F FOG
CEDAR ISLAND     N/A     72 N/A N/A N17G28    29.79S
JACKSONVILLE   CLOUDY    71  69  93 N15       29.77F
NEWPORT        NOT AVBL
PINEY ISLAND   HVY RAIN  75  72  90 N20       29.74F FOG
WILMINGTON     LGT RAIN  70  68  93 N14       29.77F


$$

NCZ011>013-027>030-043-044-078>080-089-090>093-098-210900-
COASTAL PLAIN

CITY           SKY/WX    TMP DP  RH WIND       PRES   REMARKS
AHOSKIE        CLOUDY    67  65  94 N9        29.87F
CLINTON        CLOUDY    68  68  98 N6        29.85S
ELIZABETHTOWN  CLOUDY    68  67  96 NW6       29.84F
GOLDSBORO      CLOUDY    69  69  98 N9        29.83F
GREENVILLE     RAIN      68  68 100 N9        29.86F
HAVELOCK       RAIN      72  70  93 N16G25    29.77F
KENANSVILLE    LGT RAIN  68  67  95 N6        29.83F
KINSTON        DRIZZLE   69  68  98 N8        29.83F
NEW BERN       HVY RAIN  73  69  87 N12       29.79F FOG
RICHLANDS      CLOUDY    70  66  88 N8G16     29.79F
ROANOKE RAPIDS NOT AVBL
ROCKY MOUNT    CLOUDY    68  66  93 N10       29.88F
WASHINGTON     CLOUDY    69  68  97 N12       29.81F
WHITEVILLE     CLOUDY    68  65  93 CALM      29.83F

$$

AMZ130-135-150-152-154-156-158-170-250-252-270-ANZ085-086-088-633-658-670-210900-
MARINE OBSERVATIONS

STATION/POSITION TIME  TEMP    WIND        PRES    WAVE   SWELL
                       AIR SEA DIR/SP/G            HT/PER HT/PER
                 (UTC) (F)     (DEG/KT/KT) (MB)    (FT/S) (FT/S)
CHESAPEAKE LIGHT 0800   74      10/ 16/ 16 1011.3
BUOY 44014       0800   74 75  110/ 17/ 21 1009.9    7/ 9   5/ 9
DUCK             0800   72 74   70/ 13/ 15 1009.3
2E DUCK          0800                        N/A     6/ 9   2/11
OREGON INLET     0800   71 73   40/  9/ 13 1009.1
BUOY 44095       0800      74                N/A     8/ 9   2/11
20E OREGON INLET NOT AVBL
HATTERAS CG      0800   73 75   40/  6/  7 1007.8
DIAMOND BUOY     0800   76     100/ 12/ 16 1006.4   10/ 9   8/ 9
CAPE LOOKOUT     0800   72     360/ 20/ 23 1005.6
BEAUFORT LAB     0800   72 74   10/ 16/ 20 1005.9
30 SE NEW RIVER  0800   76 83   30/ 27/ 31 1005.1    9/ 8   3/ 9
5 SE WRIGHTSVILL 0800   70 79  350/ 19/ 23   N/A
BUOY 41002       0725   81 82  210/ 23/ 29 1008.1    9/ 7
BUOY 41004       0800   74 81  340/ 19/ 23 1009.5    7/ 8   3/11

$$


USA.gov is the U.S. government's official web portal to all federal, state and local government web resources and services.